Regional Weather Roundup
Issued by NWS Sioux Falls, SD

Home | Current Version | Previous Version | Graphics & Text | Print | Product List | Glossary Off
Versions: 1 2 3 4 5 6 7 8 9 10 11 12 13 14 15 16 17 18 19 20 21 22 23 24 25 26 27 28 29 30 31 32 33 34 35 36 37 38 39 40 41 42 43 44 45 46 47 48 49 50

000
ASUS43 KFSD 242302
RWRFSD

WEATHER ROUNDUP FOR SE SOUTH DAKOTA/SW MINNESOTA/NW IOWA
NATIONAL WEATHER SERVICE SIOUX FALLS SD
600 PM CDT SUN JUL 24 2016

NOTE: "FAIR" INDICATES FEW OR NO CLOUDS BELOW 12,000 FEET WITH NO
SIGNIFICANT WEATHER AND OR OBSTRUCTIONS TO VISIBILITY.


SDZ038>040-050-052>070-250000-
SOUTHEAST SOUTH DAKOTA

CITY           SKY/WX    TMP DP  RH WIND       PRES   REMARKS
BROOKINGS      SUNNY     78  62  57 NW10      30.03F
CHAMBERLAIN    SUNNY     86  52  30 E3        30.05S
HURON          MOSUNNY   84  58  40 CALM      30.02S
MADISON        FAIR      75  59  57 N10       30.05S
MITCHELL       SUNNY     82  59  45 N6        30.04F
SIOUX FALLS    CLOUDY    78  63  59 NW10      30.04R
WINNER         FAIR      87  48  25 CALM      30.06F
YANKTON        CLOUDY    81  59  47 N5        30.03F
$$

MNZ071-072-080-081-089-090-097-098-250000-
SOUTHWEST MINNESOTA

CITY           SKY/WX    TMP DP  RH WIND       PRES   REMARKS
FAIRMONT       CLOUDY    73  48  40 N8        29.96F
JACKSON        CLOUDY    77  64  65 W7        30.02S
LUVERNE        MOSUNNY   77  61  57 NW10      30.04S
MARSHALL       SUNNY     80  64  58 NW14      30.00F
MONTEVIDEO     SUNNY     81  63  54 NW6       30.00S
REDWOOD FALLS  CLOUDY    80  62  54 NW10      29.98S
TRACY          MOSUNNY   80  66  61 NW8       30.01S
WINDOM         CLOUDY    75  64  69 W9        30.00F
WORTHINGTON    CLOUDY    76  63  64 NW12      30.03S
$$

IAZ001>003-012>014-020>022-031-032-NEZ013-014-SDZ071-250000-
NORTHWEST IOWA

CITY           SKY/WX    TMP DP  RH WIND       PRES   REMARKS
CHEROKEE       CLOUDY    78  64  61 N8G17     30.03R
ESTHERVILLE    CLOUDY    75  67  76 W6        30.01R
LE MARS        CLOUDY    79  63  57 N9        30.04S
SHELDON        CLOUDY    75  64  69 NW6       30.03S
SIOUX CITY     CLOUDY    83  63  50 NW14      30.01S
SPENCER        CLOUDY    76  63  64 NW10      30.03R
STORM LAKE     CLOUDY    77  68  73 N7        30.02F
$$

ABBREVIATIONS USED IN REMARKS
   TC - TEMPERATURE IN CELSIUS
  WCI - WIND CHILL INDEX
   HX - HEAT INDEX
  VSB - VISIBILITY





USA.gov is the U.S. government's official web portal to all federal, state and local government web resources and services.